Find Yunhai-2 05 xing

NORAD ID: 43913 Int'l Des: 2018-112 Owner: CASC Country: CN operational
LEOCIRCULAR

Live Position

Loading 3D Globe...

About Yunhai-2 05 xing

Description loading...

Upcoming Passes

Passes for default location (London). Set your location on the main map for personalized predictions.

Altitude History

Loading altitude history...

Two-Line Element Set

1 43913U 18112E 26104.93367939 .00000008 00000-0 66619-4 0 9995
2 43913 50.0065 75.2522 0004831 144.4036 215.7202 14.28985209380119
Epoch: Apr 14, 2026 • Age: 6 hours

Current Status

Altitude 793.3 km
Velocity 7.46 km/s
Sub-Earth Point -2.67°S, 11.37°W
Launch Date Dec 29, 2018
Age 7.2 years
Type other

Technical Details

Classification Payload
Mass 100.00 kg
Dry Mass 100.00 kg
Total Mass 100.00 kg
Length 0.50 m
Diameter 0.20 m
Span 1.00 m
Shape Box + 2 pan
Manufacturer DFHS
Bus Type YH-2
Phase Status In Orbit
Owner/State CASC/CN

Most Searched